ITY1571 LIRF-LIEA

Flight info

Callsign ITY1571
Flight time N/A
Altitude 29000
Route SOSAK5AXESINO8H/25 ESINO DCT ABIDU DCT POZZO L5 MINKA
Aircraft A320/M-SDE3FGHIRWY/LB1

Departure

Time N/A
Airport Rome–Fiumicino Leonardo da Vinci International Airport (LIRF)

Arrival

Time 2026-05-03 20:40
Airport Alghero-Fertilia Airport (LIEA)
Time Latitude Longitude Altitude Speed Heading
2026-05-03 20:15 41.09167 10.73368 29167 ft 397 kts 251°
2026-05-03 20:15 41.07236 10.66517 29163 ft 397 kts 251°
2026-05-03 20:16 41.05306 10.59678 29156 ft 396 kts 251°
2026-05-03 20:16 41.03365 10.52854 29149 ft 396 kts 250°
2026-05-03 20:17 41.01435 10.46083 29149 ft 396 kts 250°
2026-05-03 20:17 40.99506 10.39266 29139 ft 395 kts 253°
2026-05-03 20:18 40.98685 10.32118 29138 ft 394 kts 268°
2026-05-03 20:18 40.98449 10.24872 29133 ft 394 kts 267°
2026-05-03 20:19 40.98188 10.17620 29132 ft 395 kts 266°
2026-05-03 20:19 40.97927 10.10359 29124 ft 395 kts 266°
2026-05-03 20:19 40.97795 10.06726 28994 ft 396 kts 266°
2026-05-03 20:20 40.97664 10.03159 28651 ft 390 kts 266°
2026-05-03 20:20 40.97531 9.99591 28151 ft 386 kts 266°
2026-05-03 20:20 40.97397 9.96068 27657 ft 382 kts 266°
2026-05-03 20:20 40.97265 9.92576 27176 ft 378 kts 266°
2026-05-03 20:21 40.97135 9.89127 26705 ft 374 kts 266°
2026-05-03 20:21 40.97004 9.85699 26240 ft 371 kts 266°
2026-05-03 20:21 40.96874 9.82309 25797 ft 368 kts 266°
2026-05-03 20:21 40.96743 9.78943 25351 ft 365 kts 266°
2026-05-03 20:22 40.96612 9.75609 24921 ft 362 kts 266°
2026-05-03 20:22 40.96480 9.72297 24495 ft 359 kts 266°
2026-05-03 20:22 40.96351 9.69019 24065 ft 356 kts 266°
2026-05-03 20:22 40.96224 9.65757 23627 ft 353 kts 266°
2026-05-03 20:23 40.96096 9.62529 23154 ft 350 kts 266°
2026-05-03 20:23 40.95965 9.59330 22728 ft 346 kts 265°
2026-05-03 20:23 40.95834 9.56167 22306 ft 342 kts 266°
2026-05-03 20:23 40.95704 9.53036 21878 ft 339 kts 265°
2026-05-03 20:24 40.95579 9.49975 21459 ft 337 kts 266°
2026-05-03 20:24 40.95452 9.46891 21032 ft 335 kts 266°
2026-05-03 20:24 40.95322 9.43825 20607 ft 334 kts 265°
2026-05-03 20:24 40.95189 9.40762 20178 ft 333 kts 265°
2026-05-03 20:25 40.95056 9.37712 19747 ft 332 kts 265°
2026-05-03 20:25 40.94924 9.34667 19335 ft 331 kts 265°
2026-05-03 20:25 40.94792 9.31623 18909 ft 331 kts 265°
2026-05-03 20:25 40.94652 9.28581 18482 ft 332 kts 263°
2026-05-03 20:26 40.94215 9.25597 17982 ft 330 kts 251°
2026-05-03 20:26 40.93394 9.22778 17547 ft 328 kts 246°
2026-05-03 20:26 40.92531 9.19991 17117 ft 327 kts 246°
2026-05-03 20:26 40.91678 9.17207 16692 ft 326 kts 246°
2026-05-03 20:27 40.90832 9.14435 16276 ft 325 kts 246°
2026-05-03 20:27 40.89985 9.11666 15849 ft 325 kts 246°
2026-05-03 20:27 40.89134 9.08904 15434 ft 324 kts 246°
2026-05-03 20:27 40.88283 9.06148 15008 ft 324 kts 245°
2026-05-03 20:28 40.87449 9.03438 14598 ft 323 kts 245°
2026-05-03 20:28 40.86601 9.00686 14177 ft 323 kts 245°
2026-05-03 20:28 40.85751 8.97930 13723 ft 323 kts 245°
2026-05-03 20:28 40.84903 8.95187 13282 ft 322 kts 245°
2026-05-03 20:29 40.84058 8.92461 12847 ft 320 kts 245°
2026-05-03 20:29 40.83217 8.89756 12421 ft 318 kts 245°
2026-05-03 20:29 40.82380 8.87064 11977 ft 316 kts 245°
2026-05-03 20:29 40.81544 8.84382 11542 ft 315 kts 245°
2026-05-03 20:30 40.80701 8.81712 11105 ft 314 kts 244°
2026-05-03 20:30 40.79856 8.79062 10670 ft 313 kts 244°
2026-05-03 20:30 40.79012 8.76425 10343 ft 308 kts 244°
2026-05-03 20:30 40.78200 8.73882 10122 ft 292 kts 244°
2026-05-03 20:31 40.77423 8.71448 9660 ft 283 kts 244°
2026-05-03 20:31 40.76661 8.69061 9533 ft 283 kts 244°
2026-05-03 20:31 40.75896 8.66664 9108 ft 282 kts 244°
2026-05-03 20:31 40.75168 8.64313 8534 ft 280 kts 250°
2026-05-03 20:32 40.75073 8.61741 7904 ft 283 kts 283°
2026-05-03 20:32 40.76058 8.59555 7344 ft 288 kts 317°
2026-05-03 20:32 40.77777 8.58184 6802 ft 294 kts 334°
2026-05-03 20:32 40.79616 8.57065 6481 ft 281 kts 332°
2026-05-03 20:33 40.81217 8.55785 6291 ft 260 kts 322°
2026-05-03 20:33 40.82575 8.54275 5838 ft 252 kts 314°
2026-05-03 20:33 40.83764 8.52600 5322 ft 249 kts 308°
2026-05-03 20:33 40.84845 8.50824 4898 ft 247 kts 304°
2026-05-03 20:34 40.85845 8.48989 4448 ft 246 kts 302°
2026-05-03 20:34 40.86600 8.46975 3866 ft 241 kts 276°
2026-05-03 20:34 40.86518 8.44870 3652 ft 224 kts 249°
2026-05-03 20:34 40.85785 8.43132 3549 ft 214 kts 224°
2026-05-03 20:35 40.84611 8.41982 3461 ft 206 kts 203°
2026-05-03 20:35 40.83349 8.41220 3377 ft 194 kts 203°
2026-05-03 20:35 40.82117 8.40477 3303 ft 195 kts 202°
2026-05-03 20:35 40.80878 8.39728 3229 ft 196 kts 203°
2026-05-03 20:36 40.79662 8.38993 3151 ft 187 kts 203°
2026-05-03 20:36 40.78495 8.38287 3058 ft 182 kts 203°
2026-05-03 20:36 40.77372 8.37609 2872 ft 174 kts 203°
2026-05-03 20:36 40.76281 8.36950 2632 ft 170 kts 203°
2026-05-03 20:37 40.75216 8.36307 2405 ft 167 kts 203°
2026-05-03 20:37 40.74192 8.35690 2192 ft 162 kts 204°
2026-05-03 20:37 40.73172 8.35075 1980 ft 160 kts 204°
2026-05-03 20:37 40.72190 8.34483 1767 ft 149 kts 204°
2026-05-03 20:38 40.71286 8.33937 1586 ft 139 kts 205°
2026-05-03 20:38 40.70419 8.33414 1405 ft 135 kts 205°
2026-05-03 20:38 40.69567 8.32895 1218 ft 134 kts 205°
2026-05-03 20:38 40.68722 8.32373 1034 ft 134 kts 205°
2026-05-03 20:39 40.67876 8.31850 874 ft 135 kts 205°
2026-05-03 20:39 40.67308 8.31513 740 ft 135 kts 205°
2026-05-03 20:39 40.66441 8.31011 558 ft 136 kts 204°
2026-05-03 20:39 40.65569 8.30497 382 ft 138 kts 205°
2026-05-03 20:40 40.64689 8.29969 214 ft 140 kts 205°
2026-05-03 20:40 40.63817 8.29442 88 ft 127 kts 204°
2026-05-03 20:40 40.63287 8.29127 86 ft 40 kts 204°
2026-05-03 20:40 40.63122 8.29028 84 ft 37 kts 205°
2026-05-03 20:41 40.62877 8.28879 80 ft 39 kts 205°
2026-05-03 20:41 40.62706 8.28838 67 ft 22 kts 181°
2026-05-03 20:41 40.62596 8.28901 71 ft 16 kts 96°
2026-05-03 20:41 40.62667 8.28997 75 ft 16 kts 25°
2026-05-03 20:42 40.62773 8.29061 71 ft 17 kts 24°
2026-05-03 20:42 40.62888 8.29130 81 ft 19 kts 24°
2026-05-03 20:42 40.62998 8.29197 83 ft 17 kts 25°
2026-05-03 20:42 40.63109 8.29264 81 ft 18 kts 24°
2026-05-03 20:43 40.63230 8.29334 85 ft 20 kts 24°
2026-05-03 20:43 40.63336 8.29403 83 ft 14 kts 43°
2026-05-03 20:43 40.63302 8.29467 85 ft 10 kts 163°
2026-05-03 20:43 40.63233 8.29473 82 ft 10 kts 193°
2026-05-03 20:44 40.63172 8.29437 83 ft 11 kts 204°
2026-05-03 20:44 40.63063 8.29370 85 ft 21 kts 203°
2026-05-03 20:44 40.62927 8.29288 82 ft 20 kts 202°
2026-05-03 20:44 40.62892 8.29268 80 ft 5 kts 208°
2026-05-03 20:45 40.62857 8.29244 83 ft 6 kts 208°
2026-05-03 20:45 40.62841 8.29261 80 ft 3 kts 117°
2026-05-03 20:45 40.62833 8.29284 81 ft 3 kts 114°
2026-05-03 20:45 40.62826 8.29306 80 ft 0 kts 114°